Location: Black Forest
(43.4794°N, 75.0081°W)
Time: 21:32:44
(UTC-04:00)

ISS - All Passes

Search period start: 28 March 2017 00:00
Search period end: 07 April 2017 00:00
Orbit: 399 x 409 km, 51.6° (Epoch: 29 March)

Date Brightness Start Highest point End Pass type
(mag) Time Alt. Az. Time Alt. Az. Time Alt. Az.
28 Mar - 01:16:19 10° NW 01:19:08 25° NNE 01:21:57 10° ENE night (unlit)
28 Mar - 02:52:36 10° WNW 02:55:53 80° SW 02:59:11 10° SE night (unlit)
28 Mar - 04:31:13 10° WSW 04:31:51 10° SW 04:32:30 10° SW night (unlit)
28 Mar - 19:34:11 10° S 19:36:16 16° SE 19:38:21 10° E daylight
28 Mar - 21:09:09 10° WSW 21:12:24 68° NNW 21:15:40 10° NE visible
28 Mar - 22:46:40 10° WNW 22:49:18 22° N 22:51:58 10° NE visible
29 Mar - 00:23:58 10° NW 00:26:34 21° N 00:29:11 10° ENE night (unlit)
29 Mar - 02:00:15 10° NW 02:03:32 59° NNE 02:06:47 10° ESE night (unlit)
29 Mar - 03:37:18 10° W 03:39:44 19° SW 03:42:10 10° S night (unlit)
29 Mar - 20:16:49 10° SW 20:20:02 67° SE 20:23:18 10° ENE visible
29 Mar - 21:53:53 10° WNW 21:56:44 27° NNW 21:59:36 10° NE visible
29 Mar - 23:31:29 10° NW 23:33:57 19° N 23:36:26 10° NE night (unlit)
30 Mar - 01:07:57 10° NW 01:11:04 38° NNE 01:14:10 10° E night (unlit)
30 Mar - 02:44:29 10° WNW 02:47:31 34° SW 02:50:33 10° SSE night (unlit)
30 Mar - 19:24:44 10° SSW 19:27:44 35° SE 19:30:46 10° ENE daylight
30 Mar - 21:01:08 10° W 21:04:12 37° NNW 21:07:17 10° NE visible
30 Mar - 22:38:51 10° NW 22:41:19 19° N 22:43:48 10° NE visible
31 Mar - 00:15:39 10° NW 00:18:32 27° NNE 00:21:25 10° ENE night (unlit)
31 Mar - 01:51:57 10° WNW 01:55:13 65° SW 01:58:29 10° SE night (unlit)
31 Mar - 18:33:06 10° S 18:35:30 19° SE 18:37:56 10° E daylight
31 Mar - 20:08:30 10° WSW 20:11:43 57° NNW 20:14:57 10° NE visible
31 Mar - 21:46:07 10° WNW 21:48:41 21° N 21:51:16 10° NE visible
31 Mar - 23:23:16 10° NW 23:25:56 22° NNE 23:28:37 10° ENE visible
01 Apr - 00:59:33 10° NW 01:02:50 71° NNE 01:06:06 10° ESE night (unlit)
01 Apr - 02:36:52 10° W 02:38:57 16° SW 02:41:01 10° S night (unlit)
01 Apr - 17:42:37 10° SE 17:43:20 11° SE 17:44:03 10° ESE daylight
01 Apr - 19:16:03 10° SW 19:19:17 83° SSE 19:22:34 10° ENE daylight
01 Apr - 20:53:17 10° WNW 20:56:04 25° NNW 20:58:51 10° NE visible
01 Apr - 22:30:47 10° NW 22:33:18 20° N 22:35:48 10° NE visible
02 Apr - 00:07:12 10° NW 00:10:21 43° NNE 00:13:31 10° E night (unlit)
02 Apr - 01:43:51 10° WNW 01:46:44 28° SW 01:49:35 10° SSE night (unlit)
02 Apr - 18:23:50 10° SW 18:26:56 44° SE 18:30:03 10° ENE daylight
02 Apr - 20:00:29 10° W 20:03:28 32° NNW 20:06:29 10° NE visible
02 Apr - 21:38:11 10° NW 21:40:38 19° N 21:43:05 10° NE visible
02 Apr - 23:14:51 10° NW 23:17:48 30° NNE 23:20:46 10° E visible
03 Apr - 00:51:12 10° WNW 00:54:25 52° SW 00:57:37 10° SE night (unlit)
03 Apr - 17:31:58 10° SSW 17:34:38 24° SE 17:37:19 10° E daylight
03 Apr - 19:07:46 10° WSW 19:10:56 48° NNW 19:14:07 10° NE daylight
03 Apr - 20:45:26 10° WNW 20:47:57 20° N 20:50:28 10° NE visible
03 Apr - 22:22:28 10° NW 22:25:12 24° NNE 22:27:55 10° ENE visible
03 Apr - 23:58:43 10° WNW 00:02:01 85° NNE 00:05:18 10° ESE night (unlit)
04 Apr - 01:36:30 10° WSW 01:38:02 13° SW 01:39:36 10° SSW night (unlit)
04 Apr - 16:40:49 10° SSE 16:42:24 13° SE 16:44:00 10° ESE daylight
04 Apr - 18:15:12 10° WSW 18:18:26 82° NW 18:21:43 10° ENE daylight
04 Apr - 19:52:35 10° WNW 19:55:16 23° NNW 19:57:59 10° NE visible
04 Apr - 21:30:00 10° NW 21:32:31 20° N 21:35:04 10° ENE visible
04 Apr - 23:06:19 10° NW 23:09:32 50° NNE 23:12:44 10° ESE visible
05 Apr - 00:43:08 10° W 00:45:48 23° SW 00:48:28 10° S night (unlit)
05 Apr - 17:22:51 10° SW 17:26:01 54° SE 17:29:13 10° ENE daylight
05 Apr - 18:59:43 10° W 19:02:38 29° NNW 19:05:34 10° NE daylight
05 Apr - 20:37:23 10° NW 20:39:49 19° N 20:42:16 10° NE visible
05 Apr - 22:13:56 10° NW 22:16:57 33° NNE 22:19:59 10° E visible
05 Apr - 23:50:22 10° WNW 23:53:29 42° SW 23:56:36 10° SSE night (unlit)
06 Apr - 16:30:49 10° SSW 16:33:39 29° SE 16:36:31 10° ENE daylight
06 Apr - 18:06:56 10° W 18:10:02 41° NNW 18:13:10 10° NE daylight
06 Apr - 19:44:37 10° NW 19:47:06 19° N 19:49:35 10° NE daylight
06 Apr - 21:21:32 10° NW 21:24:20 25° NNE 21:27:07 10° ENE visible
06 Apr - 22:57:48 10° WNW 23:01:04 80° SW 23:04:21 10° SE visible
